SCP
0 0 0 0 0 0 0 0 0 0 0 0 0 0 0 0 0 0 0 0 0 0 0 0 0 0 0 0 0 1 1 1 1 1 1 1 0 0
0 0 0 0 0 0 0 0 0 0 0 0 0 0 0 0 0 0 0 0 0 0 0 0 0 0 0 0 0 0 1 1 0 1 1 1 0 0
0 0 0 0 0 0 0 0 0 0 0 0 0 0 0 0 0 0 0 0 0 0 0 0 0 0 0 0 0 0 0 0 0 0 0 0 0 0
0 0 0 0 0 0 0 0 0 0 0 0 0 0 0 0 0 0 0 0 0 0 0 0 0 0 0 0 0 0 0 0 0 0 0 0 0 0
0 0 0 0 0 0 0 0 0 0 0 0 0 0 0 0 0 0 0 0 0 0 0 0 0 0 0 0 0 0 0 0 0 0 0 0 0 0
0 0 0 0 0 0 0 0 0 0 0 0 0 0 0 0 0 0 0 0 0 0 0 0 0 0 0 0 0 0 0 0 0 0 0 0 0 0
0 0 0 0 0 0 0 0 0 0 0 0 0 0 0 0 0 0 0 0 0 0 0 0 0 0 0 0 0 0 0 0 0 0 0 0 0 0
0 0 0 0 0 0 0 0 0 0 0 0 0 0 0 0 0 0 0 0 0 0 0 0 0 0 0 0 0 0 0 0 0 0 0 0 0 0
0 0 0 0 0 0 0 0 0 0 0 0 0 0 0 0 0 0 0 0 0 0 0 0 0 0 0 0 0 0 0 0 0 0 0 0 0 0
0 0 0 0 0 0 0 0 0 0 0 0 0 0 0 0 0 0 0 0 0 0 0 0 0 0 0 0 0 0 0 0 0 0 0 0 0 0
0 0 0 0 0 0 0 0 0 0 0 0 0 0 0 0 0 0 0 0 0 0 0 0 0 0 0 0 0 0 0 0 0 0 0 0 0 0
0 0 0 0 0 0 0 0 0 0 0 0 0 0 0 0 0 0 0 0 0 0 0 0 0 0 0 0 0 0 0 0 0 0 0 0 0 0
0 0 0 0 0 0 0 0 0 0 0 0 0 0 0 0 0 0 0 0 0 0 0 0 0 0 0 0 0 0 0 0 0 0 0 0 0 0
0 0 0 0 0 0 0 0 0 0 0 0 0 0 0 0 0 0 0 0 0 0 0 0 0 0 0 0 0 0 0 0 0 0 0 0 0 0
0 0 0 0 0 0 0 0 0 0 0 0 0 0 0 0 0 0 0 0 0 0 0 0 0 0 0 0 0 0 0 0 0 0 0 0 0 0
0 0 0 0 0 0 0 0 0 0 0 0 0 0 0 0 0 0 0 0 0 0 0 0 0 0 0 0 0 0 0 0 0 0 0 0 0 0
0 0 0 0 0 0 0 0 0 0 0 0 0 0 0 0 0 0 0 0 0 0 0 0 0 0 0 0 0 0 0 0 0 0 0 0 0 0
0 0 0 0 0 0 0 0 0 0 0 0 0 0 0 0 0 0 0 0 0 0 0 0 0 0 0 0 0 0 0 0 0 0 0 0 0 0
0 0 0 0 0 0 0 0 0 0 0 0 0 0 0 0 0 0 0 0 0 0 0 0 0 0 0 0 0 0 0 0 0 0 0 0 0 0
0 0 0 0 0 0 0 0 0 0 0 0 0 0 0 0 0 0 0 0 0 0 0 0 0 0 0 0 0 0 0 0 0 0 0 0 0 0
0 0 0 0 0 0 0 0 0 0 0 0 0 0 0 0 0 0 0 0 0 0 0 0 0 0 0 0 0 0 0 0 0 0 0 0 0 0
0 0 0 0 0 0 0 0 0 0 0 0 0 0 0 0 0 0 0 0 0 0 0 0 0 0 0 0 0 0 0 0 0 0 0 0 0 0
0 0 0 0 0 0 0 0 0 0 0 0 0 0 0 0 0 0 0 0 0 0 0 0 0 0 0 0 0 0 0 0 0 0 0 0 0 0
Wind_Speed
4 4 4 3 3 3 4 4 4 5 5 4 3 3 3 3 4 5 5 6 8 8 7 8 8 9 9 10 10 11 12 12 13 14 14 14 16 16
4 5 5 4 3 3 3 4 4 5 5 3 4 5 5 4 5 6 5 7 7 6 7 7 8 8 9 10 10 11 12 12 13 13 14 14 15 15
4 5 5 5 4 3 4 4 4 5 6 5 4 5 6 5 5 5 5 5 4 5 7 7 8 8 8 9 10 11 12 12 12 13 14 14 14 14
5 5 5 4 5 4 4 5 5 5 6 6 5 5 6 5 5 5 4 4 4 5 7 8 8 8 9 10 10 10 11 12 12 13 13 13 14 14
5 5 6 6 6 5 5 5 4 5 5 5 5 4 4 4 5 4 5 4 4 4 6 7 7 8 9 9 10 10 11 12 12 12 12 13 13 13
5 5 6 6 6 6 5 5 5 5 5 4 4 4 4 4 4 4 4 4 4 4 5 6 6 8 8 9 9 9 10 11 11 11 11 12 12 13
5 6 6 6 7 6 5 5 5 5 5 4 4 4 4 4 4 4 4 4 5 4 4 4 5 5 5 6 7 8 10 11 11 11 11 11 12 12
6 5 5 6 7 8 9 9 8 7 6 5 5 5 5 5 4 4 4 4 4 2 4 5 5 5 4 4 6 9 10 10 10 10 11 11 11 12
6 5 4 5 6 6 7 9 9 10 9 7 7 7 6 5 5 5 5 5 6 4 4 5 5 5 5 4 7 9 9 9 10 10 10 11 11 11
6 6 6 6 5 6 6 6 7 7 7 7 7 7 6 6 6 6 5 6 5 4 4 5 5 5 5 4 6 7 8 9 10 10 10 11 10 10
5 6 6 6 7 7 6 6 6 6 7 9 9 8 8 7 5 3 4 4 4 4 3 3 4 5 5 4 4 6 7 8 9 10 10 11 10 10
4 5 6 7 7 7 6 6 6 5 5 5 5 5 5 6 7 5 4 4 4 3 2 2 3 3 4 3 3 4 5 6 8 9 10 10 10 6
4 4 4 6 7 7 7 5 6 5 5 4 3 3 3 3 3 4 4 4 4 4 3 2 3 3 4 4 4 4 4 4 5 6 7 8 9 7
4 4 3 4 6 6 6 6 6 5 3 3 3 3 2 2 3 3 4 4 5 5 5 4 4 4 4 5 5 4 4 5 5 5 4 6 7 7
3 4 4 4 5 5 5 5 4 3 3 3 3 3 2 2 2 2 2 3 3 4 4 4 4 4 4 5 5 5 5 5 4 4 4 4 4 4
4 4 4 4 4 4 4 3 2 2 3 3 2 2 2 2 2 2 2 2 2 2 2 3 4 4 4 5 5 5 5 4 4 4 4 4 4 4
2 2 2 2 2 2 2 2 2 2 2 2 2 2 2 2 2 2 2 2 3 3 3 2 2 2 3 4 4 4 4 4 4 4 4 4 3 3
3 2 3 3 2 2 2 2 2 2 2 2 2 2 2 2 2 2 2 2 2 2 3 3 2 2 2 2 3 4 4 4 4 4 3 4 4 3
3 2 2 2 2 2 2 2 2 2 2 2 2 2 2 2 2 2 2 2 2 2 3 2 2 2 3 3 2 2 4 4 3 3 3 3 4 4
2 3 3 2 2 2 2 2 2 1 1 1 2 2 2 2 2 2 2 2 2 3 3 2 2 3 3 3 3 3 4 4 3 3 3 3 3 4
2 2 2 2 2 2 2 2 2 2 1 1 2 2 2 2 2 2 2 3 3 2 3 3 3 4 3 2 3 3 3 3 4 4 4 4 3 3
2 2 2 2 2 2 2 2 2 2 2 2 2 2 2 2 2 3 3 2 2 2 3 3 2 2 2 2 3 3 4 3 3 4 5 5 3 2
2 2 2 2 2 2 2 2 2 2 2 2 2 2 2 2 2 2 2 2 2 2 2 2 2 2 2 2 3 3 4 4 3 2 2 3 3 4
Wind_Direction
233 240 247 248 247 249 254 261 271 278 273 269 274 280 293 289 297 289 292 298 293 291 298 307 309 309 311 312 313 314 314 314 313 311 310 310 309 310
234 236 243 249 248 246 248 252 257 268 273 277 283 289 291 289 292 290 293 296 284 290 300 306 307 307 308 310 312 313 313 312 311 312 312 312 310 312
236 240 244 248 249 246 247 250 250 255 266 277 283 287 285 287 293 294 293 291 288 292 300 302 306 307 309 311 315 316 314 311 310 310 311 311 310 311
241 245 246 247 246 249 247 250 253 255 265 275 280 286 287 287 291 294 299 297 293 295 294 296 300 304 306 309 311 312 314 311 309 309 309 310 311 311
243 246 250 249 248 249 250 253 258 259 259 265 275 284 290 292 295 297 299 298 297 293 290 287 291 298 301 303 307 309 311 310 309 308 309 309 311 313
248 248 250 250 250 252 252 252 257 261 259 261 271 278 289 292 289 293 299 302 300 299 292 293 290 290 291 296 301 306 310 311 312 312 311 312 312 311
248 246 246 247 250 252 255 255 254 256 257 260 266 273 278 282 282 288 289 300 297 295 300 300 298 295 295 293 297 306 310 313 313 313 313 311 310 309
252 251 247 239 240 244 249 257 257 256 256 254 259 264 270 274 280 278 286 292 294 297 302 301 301 297 302 301 309 311 311 313 315 315 314 311 310 311
253 253 249 246 245 246 248 251 253 253 252 257 257 259 263 264 267 271 273 276 281 288 298 292 297 298 304 303 305 309 312 313 315 316 316 317 315 314
253 251 249 250 245 248 249 252 255 255 258 257 257 257 259 260 256 262 271 281 282 273 276 283 295 298 304 301 303 310 313 314 314 316 319 319 317 316
254 252 249 249 246 249 251 254 258 261 257 257 260 261 261 256 256 257 255 263 280 281 277 274 288 301 296 292 297 304 308 312 314 315 317 317 316 313
257 251 243 247 251 250 252 253 255 261 269 263 255 253 249 238 236 240 244 250 274 278 257 267 283 304 297 288 300 308 305 308 312 314 316 317 317 311
257 256 250 248 252 256 258 255 257 267 265 261 262 265 260 251 249 253 253 248 256 264 257 267 274 281 279 291 294 298 303 308 309 309 310 316 319 317
257 257 256 257 261 265 263 257 258 267 260 251 250 255 262 266 269 270 271 268 264 266 259 259 261 268 279 285 288 294 300 303 304 306 308 312 312 313
257 262 265 267 270 265 257 257 254 251 247 245 248 260 272 276 277 280 290 291 290 279 265 263 260 264 268 276 284 290 299 300 299 301 306 308 309 309
252 251 250 251 254 262 262 252 249 252 253 252 254 268 276 272 267 267 273 286 292 294 291 281 273 266 268 274 276 283 290 290 297 303 306 304 303 304
255 249 252 254 255 256 258 261 253 248 253 253 246 258 265 267 268 271 271 277 280 286 298 302 295 287 279 279 275 278 284 289 294 301 303 307 309 308
252 256 255 252 255 259 262 266 254 249 252 248 249 253 255 262 272 277 272 271 277 285 296 303 300 288 277 275 264 272 283 291 299 302 303 308 312 315
245 251 256 255 256 260 260 260 259 259 256 243 247 252 255 257 259 262 270 279 287 288 291 293 289 286 285 294 296 283 289 293 296 299 304 302 302 313
250 248 252 254 257 259 258 259 261 256 249 244 245 249 253 257 258 262 262 270 280 287 287 282 281 286 284 293 298 306 305 291 290 297 306 305 299 300
259 252 251 251 252 253 252 248 244 241 240 244 245 248 251 255 262 266 268 267 273 275 278 284 292 296 287 281 282 294 309 308 297 291 296 295 300 309
264 258 255 254 251 246 243 240 237 233 227 236 245 249 253 253 259 263 264 261 268 277 287 296 300 297 281 277 289 302 311 318 311 291 286 285 285 301
269 262 256 254 250 240 231 229 237 239 233 238 247 251 253 257 262 262 259 260 262 267 282 292 298 301 294 289 293 300 310 315 318 326 329 317 289 282